Weather History for Clarion, IA

Change the Weather History Date:

Thursday, December 12, 2013

  Actual Average Record
Temperature  
Mean Temperature 12 °F -  
Max Temperature 23 °F 30 °F 64 °F (1968)
Min Temperature 0 °F 11 °F -14 °F (1962)
Degree Days  
Heating Degree Days 54    
Moisture  
Dew Point 6 °F    
Average Humidity 77    
Maximum Humidity 86    
Minimum Humidity 66    
Precipitation  
Precipitation 0.00 in - - ()
Sea Level Pressure  
Sea Level Pressure 30.24 in    
Wind  
Wind Speed 11 mph (SSW)    
Max Wind Speed 17 mph    
Max Gust Speed -    
Visibility 10 miles    
Events      
Averages and records for this station are not official NWS values.
T = Trace of Precipitation, MM = Missing Value Source: NWS Daily Summary

Daily Weather History Graph

Daily Weather History Graph

Search for Another Location

Airport:

Trip Planner

Search our weather history database for the weather conditions in past years. The results will help you decide how hot, cold, wet, or windy it might be!

Date:

Astronomy

Dec. 12, 2013 Rise Set
Actual Time 7:36 AM CST 4:41 PM CST
Civil Twilight 7:04 AM CST 5:13 PM CST
Nautical Twilight 6:28 AM CST 5:49 PM CST
Astronomical Twilight 5:54 AM CST 6:23 PM CST
Moon 1:53 PM CST (12/12) 2:54 AM CST (12/12)
Length of Visible Light 10h 09m
Length of Day
9h 04m
Waxing Gibbous, 80% of the Moon is Illuminated
Dec 12
Waxing Gibbous
Dec 17
Full
Dec 25
Last Quarter
Jan 1
New
Jan 7
First Quarter

Hourly Weather History & Observations

Time (CST) Temp. Windchill Dew Point Humidity Pressure Visibility Wind Dir Wind Speed Gust Speed Precip Events Conditions
12:15 AM -0.4 °F -20.5 °F -9.4 °F 66% 30.38 in 10.0 mi South 16.1 mph - N/A   Clear
12:35 AM -0.4 °F -19.2 °F -9.4 °F 66% 30.37 in 10.0 mi South 13.8 mph - N/A   Clear
12:55 AM -0.4 °F -19.2 °F -9.4 °F 66% 30.35 in 10.0 mi South 13.8 mph - N/A   Clear
1:15 AM -0.4 °F -21.2 °F -7.6 °F 72% 30.33 in 10.0 mi South 17.3 mph - N/A   Clear
1:35 AM -0.4 °F -19.9 °F -7.6 °F 72% 30.33 in 10.0 mi South 15.0 mph - N/A   Clear
1:55 AM 1.4 °F -18.2 °F -5.8 °F 72% 30.32 in 10.0 mi SSW 16.1 mph - N/A   Clear
2:15 AM 3.2 °F -15.3 °F -5.8 °F 66% 30.31 in 10.0 mi SSW 15.0 mph - N/A   Clear
2:35 AM 3.2 °F -15.9 °F -4.0 °F 72% 30.30 in 10.0 mi SSW 16.1 mph - N/A   Clear
2:55 AM 3.2 °F -11.3 °F -4.0 °F 72% 30.32 in 10.0 mi SSW 9.2 mph - N/A   Clear
3:15 AM 3.2 °F -12.2 °F -4.0 °F 72% 30.30 in 10.0 mi SSW 10.4 mph - N/A   Clear
3:35 AM 3.2 °F -10.3 °F -5.8 °F 66% 30.30 in 10.0 mi SW 8.1 mph - N/A   Clear
3:55 AM 3.2 °F -7.8 °F -5.8 °F 66% 30.30 in 10.0 mi South 5.8 mph - N/A   Clear
4:15 AM 1.4 °F -14.5 °F -5.8 °F 72% 30.29 in 10.0 mi SSW 10.4 mph - N/A   Clear
4:35 AM 3.2 °F -11.3 °F -4.0 °F 72% 30.28 in 10.0 mi SSW 9.2 mph - N/A   Clear
4:55 AM 3.2 °F -9.1 °F -4.0 °F 72% 30.29 in 10.0 mi SSW 6.9 mph - N/A   Clear
5:15 AM 3.2 °F -12.2 °F -4.0 °F 72% 30.29 in 10.0 mi SSW 10.4 mph - N/A   Clear
5:35 AM 1.4 °F -14.5 °F -4.0 °F 78% 30.29 in 10.0 mi SSW 10.4 mph - N/A   Clear
5:55 AM 3.2 °F -12.2 °F -4.0 °F 72% 30.29 in 10.0 mi SSW 10.4 mph - N/A   Clear
6:15 AM 3.2 °F -10.3 °F -2.2 °F 78% 30.29 in 10.0 mi SW 8.1 mph - N/A   Clear
6:35 AM 3.2 °F -9.1 °F -2.2 °F 78% 30.29 in 10.0 mi SW 6.9 mph - N/A   Clear
6:55 AM 3.2 °F -10.3 °F -2.2 °F 78% 30.29 in 10.0 mi SW 8.1 mph - N/A   Clear
7:15 AM 5.0 °F -6.9 °F -0.4 °F 78% 30.28 in 10.0 mi SSW 6.9 mph - N/A   Clear
7:35 AM 6.8 °F -6.9 °F 1.4 °F 79% 30.28 in 10.0 mi SW 9.2 mph - N/A   Clear
7:55 AM 8.6 °F -3.7 °F 1.4 °F 73% 30.30 in 10.0 mi SW 8.1 mph - N/A   Clear
8:15 AM 10.4 °F -0.4 °F 3.2 °F 73% 30.30 in 10.0 mi SW 6.9 mph - N/A   Partly Cloudy
8:35 AM 10.4 °F -1.5 °F 5.0 °F 79% 30.28 in 10.0 mi SW 8.1 mph - N/A   Partly Cloudy
8:55 AM 12.2 °F 0.7 °F 5.0 °F 73% 30.28 in 10.0 mi SW 8.1 mph - N/A   Clear
9:15 AM 12.2 °F -1.0 °F 6.8 °F 79% 30.29 in 10.0 mi WSW 10.4 mph - N/A   Clear
9:35 AM 14.0 °F 2.0 °F 6.8 °F 73% 30.29 in 10.0 mi SW 9.2 mph - N/A   Clear
9:55 AM 14.0 °F 0.5 °F 6.8 °F 73% 30.30 in 10.0 mi WSW 11.5 mph - N/A   Clear
10:15 AM 14.0 °F 1.2 °F 8.6 °F 79% 30.30 in 10.0 mi WSW 10.4 mph - N/A   Clear
10:35 AM 15.8 °F 2.7 °F 8.6 °F 73% 30.31 in 10.0 mi WSW 11.5 mph - N/A   Scattered Clouds
10:55 AM 15.8 °F 2.7 °F 10.4 °F 79% 30.31 in 10.0 mi WSW 11.5 mph - N/A   Scattered Clouds
11:15 AM 15.8 °F 5.1 °F 10.4 °F 79% 30.30 in 10.0 mi West 8.1 mph - N/A   Partly Cloudy
11:35 AM 17.6 °F 9.3 °F 10.4 °F 73% 30.30 in 10.0 mi WNW 5.8 mph - N/A   Scattered Clouds
11:55 AM 17.6 °F 9.3 °F 10.4 °F 73% 30.29 in 10.0 mi WNW 5.8 mph - N/A   Scattered Clouds
12:15 PM 17.6 °F 9.3 °F 10.4 °F 73% 30.28 in 10.0 mi West 5.8 mph - N/A   Mostly Cloudy
12:35 PM 17.6 °F 10.7 °F 10.4 °F 73% 30.27 in 10.0 mi SW 4.6 mph - N/A   Scattered Clouds
12:55 PM 17.6 °F 10.7 °F 12.2 °F 79% 30.26 in 10.0 mi SW 4.6 mph - N/A   Scattered Clouds
1:15 PM 19.4 °F 11.5 °F 12.2 °F 74% 30.25 in 10.0 mi SW 5.8 mph - N/A   Mostly Cloudy
1:35 PM 19.4 °F 10.4 °F 12.2 °F 74% 30.24 in 10.0 mi SW 6.9 mph - N/A   Mostly Cloudy
1:55 PM 21.2 °F 11.7 °F 14.0 °F 74% 30.23 in 10.0 mi SSW 8.1 mph - N/A   Mostly Cloudy
2:15 PM 21.2 °F 12.6 °F 14.0 °F 74% 30.22 in 10.0 mi SW 6.9 mph - N/A   Mostly Cloudy
2:35 PM 21.2 °F 10.9 °F 14.0 °F 74% 30.22 in 10.0 mi SW 9.2 mph - N/A   Overcast
2:55 PM 21.2 °F 11.7 °F 14.0 °F 74% 30.21 in 10.0 mi SW 8.1 mph - N/A   Scattered Clouds
3:15 PM 23.0 °F 11.7 °F 15.8 °F 74% 30.21 in 10.0 mi SW 11.5 mph - N/A   Clear
3:35 PM 23.0 °F 11.1 °F 15.8 °F 74% 30.21 in 10.0 mi SW 12.7 mph - N/A   Clear
3:55 PM 21.2 °F 10.1 °F 15.8 °F 80% 30.21 in 10.0 mi SW 10.4 mph - N/A   Clear
4:15 PM 21.2 °F 11.7 °F 15.8 °F 80% 30.21 in 10.0 mi SSW 8.1 mph - N/A   Partly Cloudy
4:35 PM 21.2 °F 10.9 °F 15.8 °F 80% 30.20 in 10.0 mi SSW 9.2 mph - N/A   Mostly Cloudy
4:55 PM 19.4 °F 7.9 °F 15.8 °F 86% 30.19 in 10.0 mi SSW 10.4 mph - N/A   Overcast
5:15 PM 21.2 °F 10.9 °F 15.8 °F 80% 30.18 in 10.0 mi SSW 9.2 mph - N/A   Overcast
5:35 PM 21.2 °F 10.1 °F 15.8 °F 80% 30.17 in 10.0 mi South 10.4 mph - N/A   Overcast
5:55 PM 19.4 °F 12.8 °F 15.8 °F 86% 30.17 in 10.0 mi South 4.6 mph - N/A   Overcast
6:15 PM 19.4 °F 12.8 °F 14.0 °F 80% 30.17 in 10.0 mi South 4.6 mph - N/A   Partly Cloudy
6:35 PM 17.6 °F 8.2 °F 12.2 °F 79% 30.17 in 10.0 mi South 6.9 mph - N/A   Mostly Cloudy
6:55 PM 17.6 °F 8.2 °F 14.0 °F 86% 30.17 in 10.0 mi South 6.9 mph - N/A   Overcast
7:15 PM 17.6 °F 8.2 °F 12.2 °F 79% 30.16 in 10.0 mi South 6.9 mph - N/A   Mostly Cloudy
7:35 PM 14.0 °F 2.9 °F 10.4 °F 86% 30.15 in 10.0 mi South 8.1 mph - N/A   Clear
7:55 PM 14.0 °F 2.9 °F 10.4 °F 86% 30.15 in 10.0 mi SSE 8.1 mph - N/A   Clear
8:15 PM 14.0 °F 2.9 °F 10.4 °F 86% 30.15 in 10.0 mi South 8.1 mph - N/A   Clear
8:35 PM 14.0 °F 2.9 °F 10.4 °F 86% 30.14 in 10.0 mi SSE 8.1 mph - N/A   Clear
8:55 PM 15.8 °F 4.2 °F 10.4 °F 79% 30.13 in 10.0 mi SSE 9.2 mph - N/A   Clear
9:15 PM 14.0 °F 2.0 °F 10.4 °F 86% 30.13 in 10.0 mi SSE 9.2 mph - N/A   Clear
9:35 PM 14.0 °F 2.0 °F 10.4 °F 86% 30.12 in 10.0 mi SSE 9.2 mph - N/A   Clear
9:55 PM 14.0 °F 2.0 °F 8.6 °F 79% 30.12 in 10.0 mi SSE 9.2 mph - N/A   Clear
10:15 PM 12.2 °F 0.7 °F 8.6 °F 85% 30.12 in 10.0 mi South 8.1 mph - N/A   Clear
10:35 PM 14.0 °F 2.0 °F 10.4 °F 86% 30.11 in 10.0 mi South 9.2 mph - N/A   Clear
10:55 PM 14.0 °F 2.0 °F 8.6 °F 79% 30.11 in 10.0 mi SSE 9.2 mph - N/A   Clear
11:15 PM 12.2 °F 1.7 °F 8.6 °F 85% 30.10 in 10.0 mi SSE 6.9 mph - N/A   Clear
11:35 PM 12.2 °F 2.9 °F 8.6 °F 85% 30.10 in 10.0 mi SSE 5.8 mph - N/A   Clear
11:55 PM 12.2 °F 1.7 °F 8.6 °F 85% 30.09 in 10.0 mi South 6.9 mph - N/A   Clear